Content
SEND FEEDBACK

Daily
Averages
Monthly
Summary
United States of America

ROHNERVILLE, CALIFORNIA


Home > North America > United States > California
Elevation: 390 feet     Latitude: 40 33N     Longitude: 124 07W

WEATHER
 
SELECT A DAY
Number of Records: 57,820;   Date Range: 9/21/11 - 7/21/14
 
SHARE

PRINT THIS DATA

[ ← Previous Day ]
WEATHER ALMANAC - JANUARY 31, 2013
[ Next Day → ]
[ °C ]   °F
Weather ElementAverageHighLow
Temperature44.1 °F53.6 °F (1:35 pm)39.2 °F (6:35 am)
Dewpoint43.2 °F48.2 °F (2:15 pm)39.2 °F (6:35 am)
Humidity96.8 %100 % (12:35 am)77 % (1:35 pm)
Barometer30.30 in30.37 in (12:35 am)30.23 in (11:15 pm)
Wind Speed5.2 mph12.7 mph (3:55 pm)
Weather ElementAverage
Visibility7.6 mi
Wind DirectionSE (131.5 °)

Weather ElementTotal
Precipitation---
Heating Degree Days18.6 (Base 65)
Averaged from 67 records on January 31, 2013
WEATHER CONDITIONS BREAKOUT
WIND DIRECTION BREAKOUT
WEATHER BY HOUR - JANUARY 31, 2013
[ °C ]   °F
Local TimeTemperatureDewpointHumidityBarometerVisibilityWind DirectionWind SpeedGust SpeedPrecipitationEventsConditions
12:35 AM44.6 °F44.6 °F100 %30.37 in10.0 miCalmOvercast
12:55 AM44.6 °F44.6 °F100 %30.36 in10.0 miCalmOvercast
1:15 AM44.6 °F44.6 °F100 %30.37 in10.0 miCalmOvercast
1:35 AM44.6 °F44.6 °F100 %30.36 in10.0 miSSE (150°)3.5 mphOvercast
1:55 AM44.6 °F44.6 °F100 %30.36 in10.0 miSE (140°)3.5 mphOvercast
2:15 AM44.6 °F44.6 °F100 %30.36 in10.0 miESE (120°)6.9 mphOvercast
2:35 AM44.6 °F44.6 °F100 %30.37 in8.0 miESE (110°)5.8 mphOvercast
2:55 AM44.6 °F44.6 °F100 %30.36 in5.0 miESE (110°)6.9 mphOvercast
3:15 AM44.6 °F44.6 °F100 %30.35 in7.0 miESE (110°)9.2 mphOvercast
3:35 AM44.6 °F44.6 °F100 %30.34 in10.0 miESE (110°)10.4 mphOvercast
3:55 AM42.8 °F42.8 °F100 %30.35 in10.0 miEast (90°)8.1 mphOvercast
4:15 AM42.8 °F42.8 °F100 %30.35 in10.0 miEast (90°)5.8 mphOvercast
4:35 AM41.0 °F41.0 °F100 %30.34 in10.0 miCalmOvercast
4:55 AM41.0 °F41.0 °F100 %30.34 in5.0 miEast (90°)3.5 mphOvercast
5:15 AM41.0 °F41.0 °F100 %30.34 in4.0 miEast (100°)4.6 mphOvercast
5:55 AM41.0 °F41.0 °F100 %30.34 in2.0 miEast (100°)3.5 mphOvercast
6:15 AM41.0 °F41.0 °F100 %30.33 in4.0 miESE (110°)6.9 mphOvercast
6:35 AM39.2 °F39.2 °F100 %30.33 in6.0 miESE (110°)6.9 mphOvercast
6:55 AM39.2 °F39.2 °F100 %30.33 in1.2 miEast (100°)5.8 mphOvercast
7:15 AM39.2 °F39.2 °F100 %30.34 in0.8 miESE (110°)3.5 mphOvercast
7:35 AM39.2 °F39.2 °F100 %30.35 in0.8 miCalmOvercast
7:55 AM39.2 °F39.2 °F100 %30.35 in0.5 miCalmOvercast
8:15 AM39.2 °F39.2 °F100 %30.35 in1.8 miESE (110°)5.8 mphOvercast
8:35 AM39.2 °F39.2 °F100 %30.35 in3.0 miEast (100°)5.8 mphOvercast
8:55 AM39.2 °F39.2 °F100 %30.35 in0.5 miESE (120°)6.9 mphOvercast
9:15 AM39.2 °F39.2 °F100 %30.35 in0.5 miSE (130°)5.8 mphOvercast
9:35 AM41.0 °F41.0 °F100 %30.35 in0.8 miSE (130°)3.5 mphOvercast
9:55 AM41.0 °F41.0 °F100 %30.35 in1.2 miCalmOvercast
10:15 AM41.0 °F41.0 °F100 %30.35 in6.0 miCalmOvercast
10:35 AM42.8 °F42.8 °F100 %30.34 in10.0 miCalmMostly Cloudy
10:55 AM44.6 °F44.6 °F100 %30.34 in10.0 miCalmScattered Clouds
11:15 AM46.4 °F46.4 °F100 %30.34 in10.0 miCalmClear
11:35 AM46.4 °F46.4 °F100 %30.34 in10.0 miCalmClear
12:15 PM48.2 °F46.4 °F93 %30.32 in10.0 miCalmClear
12:35 PM50.0 °F46.4 °F87 %30.32 in10.0 miCalmClear
12:55 PM50.0 °F46.4 °F87 %30.31 in10.0 miWNW (300°)4.6 mphClear
1:15 PM51.8 °F46.4 °F82 %30.30 in10.0 miWNW (290°)5.8 mphClear
1:35 PM53.6 °F46.4 °F77 %30.29 in10.0 miNW (320°)6.9 mphClear
1:55 PM53.6 °F46.4 °F77 %30.28 in10.0 miWNW (300°)5.8 mphClear
2:15 PM53.6 °F48.2 °F82 %30.28 in10.0 miNW (310°)6.9 mphClear
2:35 PM53.6 °F48.2 °F82 %30.27 in10.0 miWNW (300°)9.2 mphClear
2:55 PM53.6 °F48.2 °F82 %30.27 in10.0 miNW (310°)9.2 mphClear
3:15 PM51.8 °F48.2 °F88 %30.27 in10.0 miNW (310°)10.4 mphClear
3:35 PM51.8 °F48.2 °F88 %30.27 in10.0 miWNW (300°)10.4 mphClear
3:55 PM50.0 °F46.4 °F87 %30.27 in10.0 miWNW (300°)12.7 mphClear
4:15 PM50.0 °F46.4 °F87 %30.27 in10.0 miWNW (300°)11.5 mphClear
4:35 PM48.2 °F46.4 °F93 %30.26 in10.0 miWNW (290°)11.5 mphClear
4:55 PM48.2 °F46.4 °F93 %30.26 in10.0 miWNW (300°)9.2 mphClear
5:15 PM46.4 °F46.4 °F100 %30.26 in10.0 miWNW (290°)9.2 mphClear
5:35 PM46.4 °F46.4 °F100 %30.26 in10.0 miWNW (300°)8.1 mphClear
5:55 PM44.6 °F44.6 °F100 %30.26 in10.0 miWest (280°)9.2 mphClear
6:05 PM44.6 °F44.6 °F100 %30.26 in10.0 miWest (280°)8.1 mphClear
7:15 PM44.6 °F44.6 °F100 %30.25 in10.0 miCalmClear
7:35 PM42.8 °F42.8 °F100 %30.25 in10.0 miCalmClear
7:55 PM41.0 °F41.0 °F100 %30.25 in10.0 miCalmClear
8:15 PM41.0 °F41.0 °F100 %30.25 in10.0 miCalmClear
8:35 PM41.0 °F41.0 °F100 %30.25 in10.0 miSE (140°)5.8 mphClear
8:55 PM41.0 °F41.0 °F100 %30.24 in10.0 miSE (140°)5.8 mphClear
9:15 PM41.0 °F41.0 °F100 %30.24 in8.0 miSSE (150°)4.6 mphClear
9:35 PM41.0 °F41.0 °F100 %30.24 in10.0 miCalmClear
9:55 PM41.0 °F41.0 °F100 %30.24 in10.0 miSE (130°)6.9 mphClear
10:15 PM41.0 °F41.0 °F100 %30.24 in10.0 miSE (140°)8.1 mphClear
10:35 PM41.0 °F41.0 °F100 %30.24 in9.0 miSE (130°)8.1 mphClear
10:55 PM39.2 °F39.2 °F100 %30.24 in1.8 miSE (140°)8.1 mphClear
11:15 PM39.2 °F39.2 °F100 %30.23 in3.0 miSE (140°)9.2 mphClear
11:35 PM41.0 °F41.0 °F100 %30.23 in10.0 miSE (140°)9.2 mphClear
11:55 PM39.2 °F39.2 °F100 %30.23 in1.0 miSE (140°)9.2 mphClear
Hourly data recorded from KFOT, located miles away from Rohnerville, California







STORIES FROM OUR PARTNERS